FW5744 Carteret NJ US current weather conditions

sailwx.info

Wind from 185 at 1 knots gusting 6

Air temperature 25.0° C
Dewpoint 19.6° C

Last reported at 2020-Aug-06 16:01 UTC.
Time now 2020-Aug-06 16:27 UTC

Location: N 40°35' W 074°14'.
View on Google Maps.

See reports from other nearby stations

  
Tides and Currents Weather Stations Pressure Air Temp Water Temp Dewpoint Dewpoint Depression Visibility Wind Speed Wind Dir Waves Ship Positions
date/time (UTC)wind fromknots sea level pressurealtimeterstation pressurevisibilityair tempwater tempwave heightnotes
2020-Aug-06 16:06 129 1 gusting 6 25.6
2020-Aug-06 16:01 185 1 gusting 6 25.0
2020-Aug-06 15:55 118 2 gusting 5 25.0
2020-Aug-06 15:51 031 0 gusting 6 24.4
2020-Aug-06 15:47 127 2 gusting 6 24.4
2020-Aug-06 15:41 154 1 gusting 4 24.4
2020-Aug-06 15:35 086 0 gusting 4 23.9
2020-Aug-06 15:31 077 1 gusting 4 23.9
2020-Aug-06 15:26 100 0 gusting 4 23.9
2020-Aug-06 15:20 120 0 gusting 5 23.9
2020-Aug-06 15:16 071 1 gusting 5 23.9
2020-Aug-06 15:10 121 0 gusting 3 23.9
2020-Aug-06 15:05 066 0 gusting 3 23.9
2020-Aug-06 15:02 068 1 gusting 3 23.9
2020-Aug-06 14:55 047 23.3
2020-Aug-06 14:50 044 23.3
2020-Aug-06 14:46 044 23.3
2020-Aug-06 14:40 044 23.3
2020-Aug-06 14:36 044 23.3
2020-Aug-06 14:31 041 23.3
2020-Aug-06 14:25 041 23.3
2020-Aug-06 14:21 042 23.3
2020-Aug-06 14:18 042 23.3
2020-Aug-06 14:10 041 23.3
2020-Aug-06 14:05 041 23.3
2020-Aug-06 14:02 041 23.3
2020-Aug-06 13:55 041 23.3
2020-Aug-06 13:50 041 23.3
2020-Aug-06 13:46 042 23.3
2020-Aug-06 13:40 041 23.3
2020-Aug-06 13:35 042 0 gusting 3 23.3
2020-Aug-06 13:31 067 0 gusting 4 23.3
2020-Aug-06 13:25 066 1 gusting 4 23.3
2020-Aug-06 13:20 031 0 gusting 4 23.3
2020-Aug-06 13:16 062 0 gusting 4 23.3
2020-Aug-06 13:10 083 1 gusting 5 23.3
2020-Aug-06 13:05 052 1 gusting 6 23.3
2020-Aug-06 13:01 046 2 gusting 5 23.3
2020-Aug-06 12:55 051 1 gusting 6 23.3
2020-Aug-06 12:50 023 2 gusting 5 23.3
2020-Aug-06 12:46 040 2 gusting 5 23.3
2020-Aug-06 12:40 057 2 gusting 5 23.3
2020-Aug-06 12:35 041 1 gusting 5 23.3
2020-Aug-06 12:31 034 3 gusting 5 23.3
2020-Aug-06 12:25 004 1 gusting 5 23.3
2020-Aug-06 12:20 070 3 gusting 6 23.3
2020-Aug-06 12:15 054 1 gusting 8 23.3
2020-Aug-06 12:10 040 2 gusting 5 23.3
2020-Aug-06 12:05 028 1 gusting 6 23.3
2020-Aug-06 12:00 032 2 gusting 7 23.3
2020-Aug-06 11:55 021 2 gusting 7 23.3
2020-Aug-06 11:50 085 3 gusting 6 23.3
2020-Aug-06 11:45 074 2 gusting 6 23.3
2020-Aug-06 11:40 315 1 gusting 6 22.8
2020-Aug-06 11:35 016 3 gusting 6 22.8
2020-Aug-06 11:30 031 0 gusting 3 22.8
2020-Aug-06 11:25 030 0 gusting 4 22.8
2020-Aug-06 11:20 048 2 gusting 4 22.2
2020-Aug-06 11:15 042 1 gusting 3 22.2
2020-Aug-06 11:10 037 0 gusting 3 21.7
2020-Aug-06 11:05 035 0 gusting 3 21.7
2020-Aug-06 11:00 041 0 gusting 3 21.7
2020-Aug-06 10:55 033 0 gusting 3 21.1
2020-Aug-06 10:50 027 21.1
2020-Aug-06 10:45 359 0 gusting 3 20.6
2020-Aug-06 10:40 313 0 gusting 3 20.6
2020-Aug-06 10:35 318 20.6
2020-Aug-06 10:30 299 1 gusting 3 20.6
2020-Aug-06 10:25 204 20.0
2020-Aug-06 10:20 204 20.0
2020-Aug-06 10:15 204 20.0
2020-Aug-06 10:10 204 20.0
2020-Aug-06 10:05 204 20.0
2020-Aug-06 10:00 204 20.0
2020-Aug-06 09:50 204 20.0
2020-Aug-06 09:46 203 20.0
2020-Aug-06 09:40 204 20.0
2020-Aug-06 09:35 204 20.0
2020-Aug-06 09:25 204 20.0
2020-Aug-06 09:20 204 20.0
2020-Aug-06 09:10 204 20.0
2020-Aug-06 09:05 204 20.0
2020-Aug-06 08:55 204 20.0
2020-Aug-06 08:50 204 20.6
2020-Aug-06 08:45 203 20.6
2020-Aug-06 08:40 204 20.6
2020-Aug-06 08:30 204 20.6
2020-Aug-06 08:25 203 20.6
2020-Aug-06 08:20 203 20.6
2020-Aug-06 08:10 203 20.6
2020-Aug-06 08:05 204 20.6
2020-Aug-06 07:55 204 20.6
2020-Aug-06 07:45 204 21.1
2020-Aug-06 07:40 204 21.1
2020-Aug-06 07:35 204 21.1
2020-Aug-06 07:25 204 21.1
2020-Aug-06 07:20 204 21.1
2020-Aug-06 07:15 204 21.1
2020-Aug-06 07:10 204 0 gusting 1 21.1
2020-Aug-06 07:05 204 21.1
2020-Aug-06 07:00 204 0 gusting 4 21.7
2020-Aug-06 06:55 200 1 gusting 4 21.7
2020-Aug-06 06:50 276 21.7
2020-Aug-06 06:45 276 21.7
2020-Aug-06 06:36 276 21.7
2020-Aug-06 06:31 276 21.7
2020-Aug-06 06:26 276 21.7
2020-Aug-06 06:21 276 21.7
2020-Aug-06 06:16 276 21.7
2020-Aug-06 06:11 276 21.7
2020-Aug-06 06:05 276 21.7
2020-Aug-06 06:02 276 21.7
2020-Aug-06 05:55 276 21.7
2020-Aug-06 05:50 276 21.7
2020-Aug-06 05:48 276 21.7
2020-Aug-06 05:41 276 21.7
2020-Aug-06 05:35 276 21.7
2020-Aug-06 05:32 276 21.7
2020-Aug-06 05:25 276 22.2
2020-Aug-06 05:20 276 22.2
2020-Aug-06 05:16 276 22.2
2020-Aug-06 05:11 276 22.2
2020-Aug-06 05:05 276 22.8
2020-Aug-06 05:01 276 22.8
2020-Aug-06 04:55 276 22.8
2020-Aug-06 04:50 276 22.8
2020-Aug-06 04:45 276 22.8
2020-Aug-06 04:40 276 22.8
2020-Aug-06 04:35 276 0 gusting 1 22.8
2020-Aug-06 04:31 276 22.8
2020-Aug-06 04:25 276 23.3
2020-Aug-06 04:20 276 23.3
2020-Aug-06 04:16 276 23.3
2020-Aug-06 04:10 276 23.3
2020-Aug-06 04:05 276 23.3
2020-Aug-06 04:01 276 23.3
2020-Aug-06 03:56 276 23.3
2020-Aug-06 03:50 276 23.9
2020-Aug-06 03:45 276 23.9
2020-Aug-06 03:40 276 23.9
2020-Aug-06 03:35 276 23.9
2020-Aug-06 03:31 276 24.4
2020-Aug-06 03:25 276 24.4
2020-Aug-06 03:20 276 0 gusting 2 24.4
2020-Aug-06 03:16 276 0 gusting 2 24.4
2020-Aug-06 03:11 276 0 gusting 2 24.4
2020-Aug-06 03:05 276 0 gusting 2 24.4
2020-Aug-06 03:01 276 24.4
2020-Aug-06 02:55 276 24.4
2020-Aug-06 02:50 276 24.4
2020-Aug-06 02:46 276 24.4
2020-Aug-06 02:40 276 24.4
2020-Aug-06 02:35 276 25.0
2020-Aug-06 02:30 276 25.0
2020-Aug-06 02:25 276 25.0
2020-Aug-06 02:20 276 25.0
2020-Aug-06 02:16 276 25.6
2020-Aug-06 02:10 276 25.6
2020-Aug-06 02:05 276 25.6
2020-Aug-06 02:01 276 25.6
2020-Aug-06 01:55 276 0 gusting 3 25.6
2020-Aug-06 01:50 276 0 gusting 3 26.1
2020-Aug-06 01:45 278 0 gusting 3 26.1
2020-Aug-06 01:40 278 1 gusting 3 26.1
2020-Aug-06 01:35 293 1 gusting 3 26.1
2020-Aug-06 01:31 283 1 gusting 3 26.1
2020-Aug-06 01:25 289 0 gusting 2 26.1
2020-Aug-06 01:21 359 1 gusting 3 26.7
2020-Aug-06 01:15 278 0 gusting 4 26.7
2020-Aug-06 01:10 295 1 gusting 5 26.7
2020-Aug-06 01:05 277 2 gusting 5 26.7
2020-Aug-06 01:00 278 2 gusting 6 26.7
2020-Aug-06 00:55 279 2 gusting 6 26.7
2020-Aug-06 00:50 272 1 gusting 4 26.7
2020-Aug-06 00:45 285 1 gusting 4 26.7
2020-Aug-06 00:40 304 1 gusting 4 26.7
2020-Aug-06 00:35 312 1 gusting 3 26.7
2020-Aug-06 00:30 287 1 gusting 6 27.2
2020-Aug-06 00:25 270 0 gusting 6 27.2
2020-Aug-06 00:20 284 2 gusting 5 27.2
2020-Aug-06 00:15 252 2 gusting 5 27.2
2020-Aug-06 00:10 303 2 gusting 6 27.8
2020-Aug-06 00:05 359 1 gusting 6 27.8
2020-Aug-06 00:01 264 1 gusting 6 27.8
2020-Aug-05 23:55 296 1 gusting 6 27.8
2020-Aug-05 23:50 256 3 gusting 6 28.3
2020-Aug-05 23:46 270 1 gusting 6 28.3
2020-Aug-05 23:40 272 2 gusting 6 28.3
2020-Aug-05 23:35 287 3 gusting 9 28.3
2020-Aug-05 23:30 312 3 gusting 9 28.3
2020-Aug-05 23:25 287 3 gusting 9 28.9
2020-Aug-05 23:20 272 4 gusting 9 28.9
2020-Aug-05 23:15 288 4 gusting 8 28.9
2020-Aug-05 23:10 263 4 gusting 8 29.4
2020-Aug-05 23:05 256 4 gusting 8 29.4
2020-Aug-05 23:00 285 4 gusting 8 29.4
2020-Aug-05 22:55 283 2 gusting 6 29.4
2020-Aug-05 22:50 246 2 gusting 8 29.4
2020-Aug-05 22:46 226 3 gusting 9 29.4
2020-Aug-05 22:40 276 3 gusting 9 29.4
2020-Aug-05 22:35 278 5 gusting 10 29.4
2020-Aug-05 22:30 304 6 gusting 11 29.4
2020-Aug-05 22:25 299 5 gusting 11 29.4
2020-Aug-05 22:20 264 4 gusting 11 30.0
2020-Aug-05 22:15 297 3 gusting 11 30.0
2020-Aug-05 22:10 268 3 gusting 11 30.0
2020-Aug-05 22:05 272 3 gusting 9 30.0
2020-Aug-05 22:00 276 5 gusting 13 30.0
2020-Aug-05 21:55 287 5 gusting 11 30.0
2020-Aug-05 21:50 250 5 gusting 13 30.0
2020-Aug-05 21:45 256 5 gusting 13 30.0
2020-Aug-05 21:40 297 5 gusting 11 30.0
2020-Aug-05 21:35 318 5 gusting 11 30.0
2020-Aug-05 21:30 303 5 gusting 11 30.0
2020-Aug-05 21:25 295 4 gusting 10 30.6
2020-Aug-05 21:20 293 4 gusting 11 30.6
2020-Aug-05 21:16 243 4 gusting 10 30.6
2020-Aug-05 21:10 272 3 gusting 10 30.6
2020-Aug-05 21:05 285 1 gusting 8 30.6
2020-Aug-05 21:00 253 4 gusting 11 30.6
2020-Aug-05 20:55 254 5 gusting 13 30.6
2020-Aug-05 20:50 245 5 gusting 13 30.6
2020-Aug-05 20:46 253 5 gusting 12 30.6
2020-Aug-05 20:40 290 5 gusting 10 30.6
2020-Aug-05 20:35 272 3 gusting 11 30.0
2020-Aug-05 20:30 268 4 gusting 12 30.6
2020-Aug-05 20:25 235 5 gusting 11 30.6
2020-Aug-05 20:20 298 2 gusting 10 30.6
2020-Aug-05 20:15 253 4 gusting 12 30.6
2020-Aug-05 20:10 275 6 gusting 12 30.6
2020-Aug-05 20:05 212 3 gusting 12 30.6
2020-Aug-05 20:00 253 6 gusting 13 30.6
2020-Aug-05 19:55 293 6 gusting 13 30.6
2020-Aug-05 19:50 245 3 gusting 13 30.6
2020-Aug-05 19:45 229 7 gusting 13 30.6
2020-Aug-05 19:40 359 5 gusting 13 30.6
2020-Aug-05 19:35 305 5 gusting 12 31.1
2020-Aug-05 19:30 206 4 gusting 8 31.1
2020-Aug-05 19:25 204 3 gusting 11 31.1
2020-Aug-05 19:20 258 4 gusting 11 30.6
2020-Aug-05 19:15 211 2 gusting 12 30.6
2020-Aug-05 19:10 254 6 gusting 12 30.6
2020-Aug-05 19:00 274 3 gusting 10 31.1
2020-Aug-05 18:55 245 5 gusting 10 30.6
2020-Aug-05 18:50 293 2 gusting 10 30.6
2020-Aug-05 18:45 213 4 gusting 11 30.6
2020-Aug-05 18:40 247 6 gusting 11 30.6
2020-Aug-05 18:35 262 6 gusting 11 30.6
2020-Aug-05 18:25 294 4 gusting 15 30.6
2020-Aug-05 18:20 261 8 gusting 15 31.1
2020-Aug-05 18:10 241 4 gusting 8 30.6
2020-Aug-05 18:05 031 2 gusting 12 30.6
2020-Aug-05 18:00 281 3 gusting 9 30.6
2020-Aug-05 17:55 284 2 gusting 9 30.0
2020-Aug-05 17:50 038 2 gusting 9 30.0
2020-Aug-05 17:45 305 3 gusting 9 30.0
2020-Aug-05 17:40 249 4 gusting 9 30.0
2020-Aug-05 17:35 291 5 gusting 9 30.0
2020-Aug-05 17:25 301 5 gusting 9 30.0
2020-Aug-05 17:20 285 2 gusting 9 30.6
2020-Aug-05 17:10 272 2 gusting 9 30.6
2020-Aug-05 17:05 270 3 gusting 9 30.6
2020-Aug-05 16:55 305 4 gusting 9 30.0
2020-Aug-05 16:50 269 3 gusting 13 30.0
2020-Aug-05 16:40 256 1 gusting 9 30.0
2020-Aug-05 16:35 183 2 gusting 9 29.4
2020-Aug-05 16:25 206 4 gusting 10 29.4
2020-Aug-05 16:15 260 5 gusting 11 29.4
2020-Aug-05 16:10 259 4 gusting 10 30.0
2020-Aug-05 16:05 236 4 gusting 12 29.4
2020-Aug-05 16:00 248 2 gusting 12 29.4
2020-Aug-05 15:55 232 2 gusting 8 28.9
2020-Aug-05 15:50 285 4 gusting 8 28.9
2020-Aug-05 15:41 237 4 gusting 9 29.4
2020-Aug-05 15:36 274 0 gusting 8 28.9
2020-Aug-05 15:31 256 3 gusting 7 28.9
2020-Aug-05 15:26 218 3 gusting 7 28.9
2020-Aug-05 15:21 279 0 gusting 8 28.9
2020-Aug-05 15:17 256 2 gusting 8 28.9
2020-Aug-05 15:11 260 1 gusting 7 28.9
2020-Aug-05 15:05 232 3 gusting 6 28.9
2020-Aug-05 15:01 174 2 gusting 6 28.3
2020-Aug-05 14:55 262 1 gusting 6 28.3
2020-Aug-05 14:50 273 1 gusting 7 27.8
2020-Aug-05 14:46 287 2 gusting 6 27.8
2020-Aug-05 14:40 258 2 gusting 6 27.8
2020-Aug-05 14:35 264 2 gusting 9 27.2
2020-Aug-05 14:31 297 6 gusting 9 27.2
2020-Aug-05 14:25 310 1 gusting 6 27.8
2020-Aug-05 14:20 251 3 gusting 6 27.2
2020-Aug-05 14:16 305 3 gusting 8 27.2
2020-Aug-05 14:10 250 5 gusting 8 27.2
2020-Aug-05 14:05 260 0 gusting 7 27.2
2020-Aug-05 14:01 283 2 gusting 7 27.2
2020-Aug-05 13:55 280 3 gusting 7 27.2
2020-Aug-05 13:50 359 0 gusting 6 27.2
2020-Aug-05 13:45 278 4 gusting 6 26.7
2020-Aug-05 13:40 285 26.7
2020-Aug-05 13:35 284 1 gusting 6 26.7
2020-Aug-05 13:31 300 1 gusting 6 26.7
2020-Aug-05 13:25 297 2 gusting 8 26.7
2020-Aug-05 13:20 248 2 gusting 8 26.7
2020-Aug-05 13:16 244 1 gusting 5 26.1
2020-Aug-05 13:10 295 1 gusting 5 26.1
2020-Aug-05 13:05 359 1 gusting 6 25.6
2020-Aug-05 13:00 303 3 gusting 6 25.6
2020-Aug-05 12:55 276 1 gusting 6 25.6
2020-Aug-05 12:50 278 3 gusting 6 25.0
2020-Aug-05 12:46 264 2 gusting 5 25.0
2020-Aug-05 12:40 243 1 gusting 7 25.0
2020-Aug-05 12:35 253 4 gusting 7 24.4
2020-Aug-05 12:30 318 2 gusting 6 24.4
2020-Aug-05 12:25 287 2 gusting 7 24.4
2020-Aug-05 12:20 283 1 gusting 8 24.4
2020-Aug-05 12:15 245 3 gusting 8 24.4
2020-Aug-05 12:10 308 0 gusting 6 24.4
2020-Aug-05 12:05 290 2 gusting 6 23.9
2020-Aug-05 11:55 226 2 gusting 6 23.9
2020-Aug-05 11:50 223 1 gusting 6 23.9
2020-Aug-05 11:40 301 1 gusting 6 23.3
2020-Aug-05 11:30 258 0 gusting 5 23.3
2020-Aug-05 11:25 305 1 gusting 5 22.8
2020-Aug-05 11:15 278 1 gusting 6 22.8
2020-Aug-05 11:10 303 1 gusting 6 22.8
2020-Aug-05 11:05 269 1 gusting 5 22.8
2020-Aug-05 11:00 268 1 gusting 6 22.8
2020-Aug-05 10:55 257 1 gusting 6 22.8
2020-Aug-05 10:50 261 2 gusting 6 22.8
2020-Aug-05 10:45 245 1 gusting 6 22.2
2020-Aug-05 10:40 257 2 gusting 6 22.2
2020-Aug-05 10:35 258 1 gusting 6 22.2
2020-Aug-05 10:30 252 1 gusting 6 22.2
2020-Aug-05 10:25 249 2 gusting 7 22.2
2020-Aug-05 10:20 274 1 gusting 4 22.2
2020-Aug-05 10:15 268 1 gusting 6 22.2
2020-Aug-05 10:10 236 1 gusting 6 22.2
2020-Aug-05 10:02 276 0 gusting 6 22.2
2020-Aug-05 09:56 287 1 gusting 4 22.2
2020-Aug-05 09:51 267 0 gusting 3 22.8
2020-Aug-05 09:46 262 22.8
2020-Aug-05 09:40 262 22.8
2020-Aug-05 09:35 267 2 gusting 6 22.8
2020-Aug-05 09:32 256 1 gusting 4 22.8
2020-Aug-05 09:26 253 1 gusting 4 22.8
2020-Aug-05 09:21 256 1 gusting 4 22.8
2020-Aug-05 09:16 265 1 gusting 5 22.8
2020-Aug-05 09:11 265 0 gusting 3 22.8
2020-Aug-05 09:06 266 0 gusting 2 22.8
2020-Aug-05 09:01 266 22.8
2020-Aug-05 08:55 266 0 gusting 3 22.8
2020-Aug-05 08:51 262 22.8
2020-Aug-05 08:47 262 0 gusting 3 22.8
2020-Aug-05 08:40 263 0 gusting 3 23.3
2020-Aug-05 08:36 264 0 gusting 3 23.3
2020-Aug-05 08:31 247 0 gusting 3 23.3
2020-Aug-05 08:25 239 23.3
2020-Aug-05 08:21 245 0 gusting 3 23.3
2020-Aug-05 08:16 218 0 gusting 3 23.3
2020-Aug-05 08:10 218 0 gusting 5 23.3
2020-Aug-05 08:05 241 0 gusting 5 23.3
2020-Aug-05 08:01 262 0 gusting 3 23.9
2020-Aug-05 07:55 262 0 gusting 6 23.9
2020-Aug-05 07:50 260 1 gusting 6 23.9
2020-Aug-05 07:46 237 0 gusting 5 23.9
2020-Aug-05 07:40 215 0 gusting 5 23.9
2020-Aug-05 07:35 239 23.9
2020-Aug-05 07:31 248 1 gusting 4 23.9
2020-Aug-05 07:26 259 1 gusting 3 23.9
2020-Aug-05 07:21 258 0 gusting 3 23.9
2020-Aug-05 07:17 259 23.9
2020-Aug-05 07:10 259 0 gusting 5 23.9
2020-Aug-05 07:05 249 0 gusting 2 23.9
2020-Aug-05 07:01 238 0 gusting 3 23.9
2020-Aug-05 06:55 212 1 gusting 3 23.9
2020-Aug-05 06:51 211 0 gusting 3 23.9
2020-Aug-05 06:47 222 0 gusting 6 23.9
2020-Aug-05 06:40 225 1 gusting 6 23.3
2020-Aug-05 06:35 270 0 gusting 3 23.3
2020-Aug-05 06:31 270 0 gusting 3 23.3
2020-Aug-05 06:25 270 0 gusting 2 23.3
2020-Aug-05 06:21 270 0 gusting 3 23.3
2020-Aug-05 06:16 270 0 gusting 3 23.3
2020-Aug-05 06:11 270 0 gusting 1 23.3
2020-Aug-05 06:05 270 23.3
2020-Aug-05 06:00 271 23.3
2020-Aug-05 05:55 271 1 gusting 3 23.3
2020-Aug-05 05:51 270 0 gusting 1 23.3
2020-Aug-05 05:47 270 23.3
2020-Aug-05 05:40 271 23.3
2020-Aug-05 05:35 271 23.3
2020-Aug-05 05:31 270 0 gusting 1 23.3
2020-Aug-05 05:26 270 23.3
2020-Aug-05 05:20 271 23.3
2020-Aug-05 05:16 270 23.3
2020-Aug-05 05:10 270 23.3
2020-Aug-05 05:06 270 23.9
2020-Aug-05 05:01 271 0 gusting 2 23.9
2020-Aug-05 04:55 270 23.9
2020-Aug-05 04:50 271 23.9
2020-Aug-05 04:46 271 23.9
2020-Aug-05 04:40 270 0 gusting 2 23.9
2020-Aug-05 04:35 270 0 gusting 2 23.9
2020-Aug-05 04:31 266 0 gusting 3 23.9
2020-Aug-05 04:25 266 0 gusting 6 23.9
2020-Aug-05 04:20 216 1 gusting 6 23.9
2020-Aug-05 04:15 219 1 gusting 4 23.9
2020-Aug-05 04:10 227 23.9
2020-Aug-05 04:05 218 0 gusting 6 23.9
2020-Aug-05 04:01 217 1 gusting 7 23.9
2020-Aug-05 03:55 215 1 gusting 6 24.4
2020-Aug-05 03:50 260 2 gusting 6 24.4
2020-Aug-05 03:45 208 3 gusting 9 24.4
2020-Aug-05 03:40 218 2 gusting 6 24.4
2020-Aug-05 03:35 198 1 gusting 6 24.4
2020-Aug-05 03:30 213 2 gusting 6 24.4
2020-Aug-05 03:25 220 2 gusting 6 24.4
2020-Aug-05 03:20 213 1 gusting 6 24.4
2020-Aug-05 03:15 183 1 gusting 5 24.4
2020-Aug-05 03:10 183 1 gusting 6 24.4
2020-Aug-05 03:05 188 2 gusting 6 24.4
2020-Aug-05 03:00 187 3 gusting 7 25.0
2020-Aug-05 02:55 217 2 gusting 7 25.0
2020-Aug-05 02:50 213 3 gusting 9 25.0
2020-Aug-05 02:45 206 4 gusting 8 25.0
2020-Aug-05 02:40 221 2 gusting 8 25.0
2020-Aug-05 02:35 178 4 gusting 7 25.0
2020-Aug-05 02:30 185 3 gusting 11 25.0
2020-Aug-05 02:25 194 4 gusting 11 25.0
2020-Aug-05 02:20 232 4 gusting 11 25.0
2020-Aug-05 02:16 128 4 gusting 8 25.0
2020-Aug-05 02:10 218 3 gusting 8 25.0
2020-Aug-05 02:05 195 3 gusting 8 25.0
2020-Aug-05 02:00 194 3 gusting 7 25.0
2020-Aug-05 01:55 193 2 gusting 7 25.0
2020-Aug-05 01:50 197 3 gusting 7 25.0
2020-Aug-05 01:46 205 4 gusting 7 25.0
2020-Aug-05 01:40 207 3 gusting 11 25.0
2020-Aug-05 01:35 247 3 gusting 8 25.0
2020-Aug-05 01:30 210 4 gusting 10 25.0
2020-Aug-05 01:25 197 2 gusting 8 25.0
2020-Aug-05 01:20 181 4 gusting 8 25.0
2020-Aug-05 01:16 174 2 gusting 6 25.0
2020-Aug-05 01:10 180 2 gusting 7 25.0
2020-Aug-05 01:05 216 3 gusting 7 25.0
2020-Aug-05 01:00 190 3 gusting 6 25.0
2020-Aug-05 00:55 223 2 gusting 6 25.6
2020-Aug-05 00:50 201 3 gusting 6 25.6
2020-Aug-05 00:45 213 2 gusting 7 25.6
2020-Aug-05 00:40 211 2 gusting 6 25.6
2020-Aug-05 00:35 202 0 gusting 3 25.6
2020-Aug-05 00:30 199 0 gusting 6 25.6
2020-Aug-05 00:25 233 2 gusting 6 25.6
2020-Aug-05 00:20 154 1 gusting 5 25.6
2020-Aug-05 00:15 254 0 gusting 6 25.6
2020-Aug-05 00:10 261 0 gusting 6 26.1
2020-Aug-05 00:05 209 1 gusting 7 26.1
2020-Aug-05 00:00 220 3 gusting 7 26.1
2020-Aug-04 23:55 228 2 gusting 7 26.1
2020-Aug-04 23:50 174 1 gusting 6 26.7
2020-Aug-04 23:45 245 1 gusting 6 26.7
2020-Aug-04 23:40 241 1 gusting 7 26.7
2020-Aug-04 23:35 258 2 gusting 6 26.7
2020-Aug-04 23:25 267 0 gusting 6 26.1
2020-Aug-04 23:20 251 1 gusting 9 26.1
2020-Aug-04 23:15 209 4 gusting 8 26.7
2020-Aug-04 23:10 216 3 gusting 11 26.7
2020-Aug-04 23:05 260 5 gusting 12 26.7
2020-Aug-04 22:55 274 2 gusting 10 27.2
2020-Aug-04 22:50 232 4 gusting 11 27.2
2020-Aug-04 22:40 257 6 gusting 15 27.2
2020-Aug-04 22:31 305 4 gusting 16 27.2
2020-Aug-04 22:25 318 5 gusting 16 27.2
2020-Aug-04 22:20 284 8 gusting 19 27.2
2020-Aug-04 22:15 239 9 gusting 19 27.2
2020-Aug-04 22:10 223 6 gusting 12 27.2
2020-Aug-04 22:05 227 5 gusting 14 27.2
2020-Aug-04 22:01 266 5 gusting 16 27.2
2020-Aug-04 21:55 231 3 gusting 17 27.2
2020-Aug-04 21:50 242 8 gusting 22 27.2
2020-Aug-04 21:45 245 7 gusting 22 27.2
2020-Aug-04 21:40 313 9 gusting 20 27.2
2020-Aug-04 21:30 237 8 gusting 15 27.2
2020-Aug-04 21:25 274 6 gusting 15 27.2
2020-Aug-04 21:20 278 7 gusting 16 26.7
2020-Aug-04 21:15 239 5 gusting 18 26.7
2020-Aug-04 21:10 206 6 gusting 19 26.7
2020-Aug-04 21:05 185 7 gusting 19 26.7
2020-Aug-04 20:55 238 6 gusting 15 26.7
2020-Aug-04 20:50 221 8 gusting 19 26.1
2020-Aug-04 20:45 251 9 gusting 19 26.7
2020-Aug-04 20:40 245 7 gusting 18 26.7
2020-Aug-04 20:35 251 6 gusting 17 26.7
2020-Aug-04 20:25 240 6 gusting 18 26.1
2020-Aug-04 20:20 274 7 gusting 25 26.1
2020-Aug-04 20:15 226 6 gusting 25 25.6
2020-Aug-04 20:10 267 10 gusting 27 25.0
2020-Aug-04 20:05 193 9 gusting 18 25.0
2020-Aug-04 20:00 247 9 gusting 24 25.0
2020-Aug-04 19:55 247 10 gusting 24 25.6
2020-Aug-04 19:50 270 9 gusting 21 25.6
2020-Aug-04 19:45 221 13 gusting 25 25.0
2020-Aug-04 19:40 284 12 gusting 27 24.4
2020-Aug-04 19:35 269 12 gusting 38 23.9
2020-Aug-04 19:26 250 16 gusting 41 23.3
2020-Aug-04 19:20 253 20 gusting 41 23.3
2020-Aug-04 19:17 195 13 gusting 26 23.3
2020-Aug-04 19:10 272 6 gusting 16 23.3
2020-Aug-04 19:06 291 6 gusting 17 23.3
2020-Aug-04 19:02 359 4 gusting 22 23.3
2020-Aug-04 18:56 224 9 gusting 22 23.3
2020-Aug-04 18:51 166 4 gusting 17 23.3
2020-Aug-04 18:47 171 7 gusting 17 23.3
2020-Aug-04 18:41 223 6 gusting 12 23.3
2020-Aug-04 18:36 141 7 gusting 14 22.8
2020-Aug-04 18:31 193 6 gusting 14 22.8
2020-Aug-04 18:25 218 6 gusting 13 22.8
2020-Aug-04 18:21 193 7 gusting 14 22.2
2020-Aug-04 18:16 179 7 gusting 17 22.2
2020-Aug-04 18:10 143 6 gusting 17 22.2
2020-Aug-04 18:05 154 7 gusting 16 21.7
2020-Aug-04 18:01 170 8 gusting 26 21.7
2020-Aug-04 17:56 182 12 gusting 26 21.7
2020-Aug-04 17:50 150 11 gusting 23 21.7
2020-Aug-04 17:46 151 9 gusting 23 21.7
2020-Aug-04 17:40 138 13 gusting 28 22.2
2020-Aug-04 17:35 125 11 gusting 27 22.2
2020-Aug-04 17:32 195 11 gusting 32 22.8
2020-Aug-04 17:25 139 13 gusting 32 22.8
2020-Aug-04 17:20 159 12 gusting 33 23.3
2020-Aug-04 17:17 155 15 gusting 33 23.3
2020-Aug-04 17:10 177 18 gusting 34 23.9
2020-Aug-04 17:05 139 14 gusting 27 23.9
2020-Aug-04 17:01 196 12 gusting 32 24.4
2020-Aug-04 16:55 156 16 gusting 32 24.4
2020-Aug-04 16:51 145 16 gusting 31 25.0
2020-Aug-04 16:46 162 11 gusting 27 25.0
2020-Aug-04 16:40 126 16 gusting 27 25.0
2020-Aug-04 16:35 103 13 gusting 29 25.0
2020-Aug-04 16:30 135 15 gusting 32 24.4
2020-Aug-04 16:25 119 18 gusting 32 24.4
2020-Aug-04 16:21 129 14 gusting 31 24.4
2020-Aug-04 16:16 093 15 gusting 32 24.4
2020-Aug-04 16:10 143 13 gusting 28 24.4
2020-Aug-04 16:05 124 9 gusting 31 24.4
2020-Aug-04 16:00 135 9 gusting 31 23.9